This is the latest recevied weather packets stored in our database for station/object EA3RCF. If no packets are shown the sender has not sent any weather packets the latest 10 day(s).
| Time | Temp. | Humidity | Pressure | Rain* | Wind** | Luminosity | Snow |
|---|---|---|---|---|---|---|---|
| 1777454906 | 18.33° C | 74% | 1014.1 hPa | 0 mm | - | - | - |
| 1777454607 | 17.78° C | 74% | 1014 hPa | 0 mm | - | - | - |
| 1777454316 | 17.78° C | 76% | 1014 hPa | 0 mm | - | - | - |
| 1777453711 | 17.22° C | 76% | 1014 hPa | 0 mm | - | - | - |
| 1777453393 | 17.22° C | 77% | 1014 hPa | 0 mm | - | - | - |
| 1777453100 | 17.22° C | 77% | 1013.9 hPa | 0 mm | - | - | - |
| 1777452802 | 16.67° C | 77% | 1013.9 hPa | 0 mm | - | - | - |
| 1777452506 | 16.67° C | 77% | 1013.8 hPa | 0 mm | - | - | - |
| 1777452208 | 16.67° C | 77% | 1013.8 hPa | 0 mm | - | - | - |
| 1777451916 | 16.67° C | 78% | 1013.9 hPa | 0 mm | - | - | - |
| 1777451597 | 16.67° C | 78% | 1013.7 hPa | 0 mm | - | - | - |
| 1777451019 | 16.11° C | 80% | 1013.7 hPa | 0 mm | - | - | - |
| 1777450698 | 15.56° C | 80% | 1013.7 hPa | 0 mm | - | - | - |
| 1777450399 | 16.11° C | 79% | 1013.8 hPa | 0 mm | - | - | - |
| 1777450106 | 16.11° C | 79% | 1013.8 hPa | 0 mm | - | - | - |
| 1777449809 | 16.11° C | 81% | 1013.8 hPa | 0 mm | - | - | - |
| 1777449507 | 16.11° C | 80% | 1013.8 hPa | 0 mm | - | - | - |
| 1777449197 | 15.56° C | 82% | 1013.8 hPa | 0 mm | - | - | - |
| 1777448895 | 15° C | 85% | 1013.8 hPa | 0 mm | - | - | - |
| 1777448595 | 15° C | 84% | 1013.7 hPa | 0 mm | - | - | - |
| 1777448302 | 15° C | 84% | 1013.7 hPa | 0 mm | - | - | - |
| 1777447718 | 15° C | 87% | 1013.9 hPa | 0 mm | - | - | - |
| 1777447400 | 14.44° C | 89% | 1013.9 hPa | 0 mm | - | - | - |
| 1777447102 | 13.89° C | 90% | 1013.8 hPa | 0 mm | - | - | - |
| 1777446809 | 13.33° C | 92% | 1013.8 hPa | 0 mm | - | - | - |
* Rain latest hour (hover to see other rain measurements)
** Current wind speed in m/s (hover to see current wind gust speed)